User: anonymous   Login
Location: Glencliff
(36.1226°N, 86.7183°W)
Time: 14:42:07
(UTC+00:00)
Language:

Cosmos 1386 Rocket - Orbit

View from above orbital plane
View from above orbital plane
View from above satellite
View from above satellite

Ground track
Ground track

The orbit data is extracted from the following two-line orbital elements,

1 13354U 82069B   19293.88125040 -.00000018 +00000-0 -32263-4 0  9994
2 13354 082.9597 064.6452 0050807 247.0647 112.5145 13.78886341875452
Epoch (UTC): 20 October 2019 21:09:00
Eccentricity: 0.0050807
inclination: 82.9597°
perigee height: 930 km
apogee height: 1005 km
right ascension of ascending node: 64.6452°
argument of perigee: 247.0647°
revolutions per day: 13.78886341
mean anomaly at epoch: 112.5145°
orbit number at epoch: 87545

The dashed part of the orbit path shows where the satellite is in the earth's shadow,  

DLR